User: anonymous   Login
Location: Alberta Star Party
(51.6612°N, 112.9089°W)
Time: 02:14:25
(UTC-06:00)
Language:

AO-Echo - Orbit

View from above orbital plane
View from above orbital plane
View from above satellite
View from above satellite

Ground track
Ground track

The orbit data is extracted from the following two-line orbital elements,

1 28375U 04025K   16239.77391623  .00000024  00000-0  19879-4 0  9999
2 28375  98.3302 173.7782 0083866  91.5198 269.5600 14.41793160639407
Epoch (UTC): 26 August 2016 18:34:26
Eccentricity: 0.0083866
inclination: 98.3302°
perigee height: 693 km
apogee height: 812 km
right ascension of ascending node: 173.7782°
argument of perigee: 91.5198°
revolutions per day: 14.41793160
mean anomaly at epoch: 269.5600°
orbit number at epoch: 63940

The dashed part of the orbit path shows where the satellite is in the earth's shadow,  

DLR